[ hide orbit diagram ]
For accurate long-term ephemerides, please instead use our Horizons system.This orbit viewer was implemented using two-body methods, and hence should not be used for determining accurate long-term trajectories (over several years or decades) or planetary encounter circumstances.
Orbital Elements at Epoch 2459000.5 (2020-May-31.0) TDB
Reference: JPL 19 (heliocentric ecliptic J2000)
Element | Value | Uncertainty (1-sigma) | Units |
e | .2036258406370302 | 3.8158e-08 | |
a | 2.410455746264207 | 9.0949e-09 | au |
q | 1.919624668612798 | 9.2386e-08 | au |
i | 3.335460026239375 | 3.722e-06 | deg |
node | 90.1144584370286 | 9.3757e-05 | deg |
peri | 341.7569667256169 | 9.4585e-05 | deg |
M | 135.4697001561726 | 1.2473e-05 | deg |
tp | 2458486.116724500446 (2019-Jan-02.61672450) | 4.6453e-05 | TDB |
period | 1366.932819415427 3.74 | 7.7364e-06 2.118e-08 | d yr |
n | .263363345211036 | 1.4905e-09 | deg/d |
Q | 2.901286823915616 | 1.0947e-08 | au |
|
| | Orbit Determination Parameters
Additional Information
|
[ show covariance matrix ]
Physical Parameter Table
Parameter |
Symbol |
Value |
Units |
Sigma |
Reference |
Notes |
absolute magnitude |
H |
16.6 |
|
n/a |
MPO352330 |
|
|
215649 (2003 UT103) Discovered 2003-Oct-20 by NEAT at Palomar |
Reference: 20090607/Numbers.arc | Last Updated: 2009-06-08 |
|
[ show close-approach data ]
|